User: anonymous   Login
Location: Monrovia
(34.7865°N, 86.7139°W)
Time: 02:21:57
(UTC+00:00)
Language:

H-2A R/B - Orbit

View from above orbital plane
View from above orbital plane
View from above satellite
View from above satellite

Ground track
Ground track

The orbit data is extracted from the following two-line orbital elements,

1 38341U 12025E   20272.74108223  .00000283  00000-0  40739-4 0  9999
2 38341  98.5128  74.5233 0054295 259.9123  99.5961 14.84075769452768
Epoch (UTC): 28 September 2020 17:47:09
Eccentricity: 0.0054295
inclination: 98.5128°
perigee height: 578 km
apogee height: 654 km
right ascension of ascending node: 74.5233°
argument of perigee: 259.9123°
revolutions per day: 14.84075769
mean anomaly at epoch: 99.5961°
orbit number at epoch: 45276

The dashed part of the orbit path shows where the satellite is in the earth's shadow,  

DLR